TimeAKST,TemperatureF,Dew PointF,Humidity,Sea Level PressureIn,VisibilityMPH,Wind Direction,Wind SpeedMPH,Gust SpeedMPH,PrecipitationIn,Events,Conditions,WindDirDegrees,DateUTC
12:53 AM,37.0,30.0,76,29.74,10.0,SSW,15.0,-,0.00,Rain,Light Rain,210,2013-02-12 09:53:00
1:53 AM,37.0,30.0,76,29.73,10.0,SSW,10.4,18.4,0.00,Rain,Light Rain,200,2013-02-12 10:53:00
3:53 AM,36.0,28.0,73,29.70,10.0,SSW,12.7,-,0.00,Rain,Light Rain,200,2013-02-12 12:53:00
4:53 AM,36.0,27.0,70,29.72,10.0,South,9.2,-,0.00,Rain,Light Rain,180,2013-02-12 13:53:00
5:53 AM,35.1,27.0,72,29.72,10.0,South,10.4,-,0.00,Rain,Light Rain,190,2013-02-12 14:53:00
6:53 AM,34.0,27.0,75,29.74,10.0,SSW,9.2,-,0.00,Rain,Light Rain,210,2013-02-12 15:53:00
7:53 AM,30.9,25.0,79,29.75,10.0,Calm,Calm,-,0.00,,Clear,0,2013-02-12 16:53:00
8:53 AM,30.0,25.0,82,29.77,10.0,NE,4.6,-,0.00,,Clear,40,2013-02-12 17:53:00
9:53 AM,30.0,26.1,85,29.79,9.0,Calm,Calm,-,0.00,,Clear,0,2013-02-12 18:53:00
10:53 AM,30.9,27.0,85,29.82,10.0,NE,3.5,-,0.00,,Clear,50,2013-02-12 19:53:00
11:53 AM,35.1,27.0,72,29.83,9.0,NE,3.5,-,0.00,Snow,Light Snow,40,2013-02-12 20:53:00
12:53 PM,34.0,26.1,73,29.85,10.0,SW,4.6,-,0.00,Rain,Light Rain,220,2013-02-12 21:53:00
1:53 PM,35.1,26.1,70,29.86,10.0,Calm,Calm,-,0.00,Rain,Light Rain,0,2013-02-12 22:53:00
2:53 PM,35.1,23.0,61,29.89,10.0,SSW,6.9,-,0.00,Rain,Light Rain,210,2013-02-12 23:53:00
3:53 PM,35.1,21.9,59,29.92,10.0,Calm,Calm,-,0.00,Rain,Light Rain,0,2013-02-13 00:53:00
4:53 PM,30.9,23.0,72,29.96,10.0,Calm,Calm,-,0.00,Snow,Light Snow,0,2013-02-13 01:53:00
5:53 PM,30.0,21.9,72,29.99,10.0,Calm,Calm,-,0.00,Snow,Light Snow,0,2013-02-13 02:53:00
6:53 PM,28.0,21.0,75,30.01,10.0,Calm,Calm,-,0.00,,Clear,0,2013-02-13 03:53:00
7:53 PM,28.0,21.9,78,30.04,9.0,Calm,Calm,-,0.00,Snow,Light Snow,0,2013-02-13 04:53:00
8:53 PM,27.0,21.0,78,30.06,9.0,Calm,Calm,-,0.00,Snow,Light Snow,0,2013-02-13 05:53:00
9:53 PM,28.0,19.9,72,30.07,9.0,NE,5.8,-,0.00,Snow,Light Snow,50,2013-02-13 06:53:00
10:53 PM,28.9,19.0,67,30.10,9.0,Calm,Calm,-,0.00,Snow,Light Snow,0,2013-02-13 07:53:00
11:53 PM,28.9,19.0,67,30.12,9.0,NE,3.5,-,0.00,Snow,Light Snow,40,2013-02-13 08:53:00